This is the latest recevied weather packets stored in our database for station/object KO4IDC-13. If no packets are shown the sender has not sent any weather packets the latest 1 day(s).
| Time | Temp. | Humidity | Pressure | Rain* | Wind** | Luminosity | Snow |
|---|---|---|---|---|---|---|---|
| 1778029697 | 11.67° C | 99% | 1009.6 hPa | 0 mm | - | 0 W/m² | - |
| 1778029395 | 11.67° C | 99% | 1009.7 hPa | 0 mm | - | 0 W/m² | - |
| 1778028788 | 11.67° C | 99% | 1009.6 hPa | 1.27 mm | - | 0 W/m² | - |
| 1778027878 | 11.67° C | 98% | 1009.5 hPa | 0 mm | - | 0 W/m² | - |
| 1778027271 | 11.67° C | 98% | 1009.8 hPa | 0 mm | - | 1 W/m² | - |
| 1778026967 | 11.67° C | 98% | 1009.4 hPa | 0 mm | - | 2 W/m² | - |
| 1778026663 | 11.67° C | 98% | 1009.7 hPa | 1.78 mm | - | 2 W/m² | - |
| 1778026361 | 11.67° C | 98% | 1009.6 hPa | 1.78 mm | - | 4 W/m² | - |
| 1778025452 | 11.67° C | 98% | 1009.9 hPa | 1.78 mm | - | 32 W/m² | - |
| 1778024240 | 12.22° C | 98% | 1009.6 hPa | 0 mm | - | 9 W/m² | - |
| 1778022426 | 13.33° C | 98% | 1009.5 hPa | 6.1 mm | - | 25 W/m² | - |
| 1778021211 | 16.67° C | 98% | 1009.4 hPa | 7.87 mm | - | 15 W/m² | - |
| 1778019998 | 16.67° C | 98% | 1009.4 hPa | 7.87 mm | - | 28 W/m² | - |
| 1778019695 | 16.67° C | 98% | 1009.4 hPa | 4.32 mm | - | 18 W/m² | - |
| 1778019392 | 16.67° C | 98% | 1009 hPa | 4.32 mm | - | 26 W/m² | - |
| 1778018786 | 16.67° C | 98% | 1009.3 hPa | 3.05 mm | - | 34 W/m² | - |
| 1778017577 | 16.67° C | 98% | 1009.3 hPa | 3.05 mm | - | 47 W/m² | - |
| 1778016971 | 16.67° C | 98% | 1009.4 hPa | 3.05 mm | - | 42 W/m² | - |
| 1778016062 | 16.11° C | 97% | 1009.3 hPa | 3.05 mm | - | 37 W/m² | - |
| 1778013335 | 16.11° C | 97% | 1009.4 hPa | 14.99 mm | - | 82 W/m² | - |
| 1778012424 | 16.11° C | 96% | 1009.6 hPa | 6.1 mm | - | 21 W/m² | - |
| 1778010608 | 16.11° C | 95% | 1010 hPa | 4.32 mm | - | 108 W/m² | - |
| 1778008190 | 16.11° C | 96% | 1010.4 hPa | 0 mm | - | 122 W/m² | - |
| 1778006065 | 16.67° C | 96% | 1010.8 hPa | 0 mm | - | 204 W/m² | - |
* Rain latest hour (hover to see other rain measurements)
** Current wind speed in m/s (hover to see current wind gust speed)